Location: Poughquag
(41.6090°N, 73.6820°W)
Time: 04:33:31
(UTC-04:00)

ITUPSAT 1 - Pass Details

Date: 19 June 2024
Orbit: 695 x 705 km, 98.5° (Epoch: 24 July)

Event Time Altitude Azimuth Distance (km) Brightness Sun altitude
Rises 00:39:31 0° 353° (N) 3,106 ? -24.8°
Reaches altitude 10° 00:43:03 10° 325° (NW) 2,183 ? -24.9°
Maximum altitude 00:45:03 13° 300° (WNW) 2,004 ? -24.9°
Drops below altitude 10° 00:47:03 10° 275° (W) 2,178 ? -24.9°
Enters shadow 00:48:28 - 261° (W) 2,475 ? -24.9°
